EW2973 Weather Reports


Display with metric or nautical units.
time (UTC)temp
F
wind
direction
speed
MPH
gust
MPH
rain 1hr
in
rain 24hr
in
rain mn
in
humidity
%
barometer
mb
20260508080015 45 178 0.0 0.0 0.00 0.00 0.00 76 1014.3
20260508074516 45 200 0.0 0.0 0.00 0.00 0.00 77 1014.3
20260508073012 46 277 0.0 0.0 0.00 0.00 0.00 78 1014.4
20260508071513 46 340 0.0 0.0 0.00 0.00 0.00 78 1014.7
20260508070009 46 340 0.0 0.0 0.00 0.00 0.00 77 1014.9
20260508064514 46 340 0.0 0.0 0.00 0.00 0.00 75 1015.0
20260508063013 47 340 0.0 0.0 0.00 0.00 0.00 73 1015.3
20260508061515 47 262 0.0 1.0 0.00 0.00 0.00 71 1015.4
20260508060017 47 211 0.0 2.0 0.00 0.00 0.00 69 1014.7
20260508054513 46 167 1.0 3.0 0.00 0.00 0.00 69 1014.5
20260508053010 46 192 0.0 1.0 0.00 0.00 0.00 70 1014.6
20260508051517 46 171 0.0 0.0 0.00 0.00 0.00 72 1014.6
20260508050018 46 174 0.0 0.0 0.00 0.00 0.00 73 1014.8
20260508044518 45 173 0.0 0.0 0.00 0.00 0.00 75 1014.8
20260508043016 45 188 0.0 2.0 0.00 0.00 0.00 75 1014.9
20260508041513 44 257 0.0 0.0 0.00 0.00 0.00 78 1014.9
20260508040018 44 257 0.0 0.0 0.00 0.00 0.00 79 1014.8
20260508034515 44 257 0.0 0.0 0.00 0.00 0.00 79 1014.7
20260508033025 44 257 0.0 0.0 0.00 0.00 0.00 78 1014.8
20260508031516 44 257 0.0 0.0 0.00 0.00 0.00 75 1014.5
20260508030017 44 257 0.0 0.0 0.00 0.00 0.00 76 1014.6
20260508024520 44 257 0.0 0.0 0.00 0.00 0.00 75 1014.7
20260508023033 45 257 0.0 0.0 0.00 0.00 0.00 73 1014.6
20260508021513 45 257 0.0 0.0 0.00 0.00 0.00 70 1014.6
20260508020021 46 257 0.0 0.0 0.00 0.00 0.00 66 1014.7
20260508014520 47 257 0.0 0.0 0.00 0.00 0.00 66 1014.6
20260508013020 48 257 0.0 0.0 0.00 0.00 0.00 62 1014.6
20260508011521 49 257 0.0 0.0 0.00 0.00 0.00 58 1014.5
20260508010035 50 257 0.0 0.0 0.00 0.00 0.00 57 1014.4
20260508004522 51 257 0.0 0.0 0.00 0.00 0.00 51 1014.4
20260508003019 52 257 0.0 0.0 0.00 0.00 0.00 47 1014.2
20260508001529 53 257 0.0 2.0 0.00 0.00 0.00 45 1014.2
20260508000022 54 262 0.0 0.0 0.00 0.00 0.00 46 1014.1
20260507234524 55 23 0.0 3.0 0.00 0.00 0.00 44 1014.0
20260507233019 55 360 0.0 2.0 0.00 0.00 0.00 43 1014.0
20260507231518 56 352 1.0 3.0 0.00 0.00 0.00 42 1013.9
20260507230016 56 17 1.0 4.0 0.00 0.00 0.00 42 1013.9
20260507224512 56 352 2.0 4.0 0.00 0.00 0.00 43 1014.1
20260507223021 56 5 0.0 3.0 0.00 0.00 0.00 42 1014.2
20260507221527 57 19 2.0 8.0 0.00 0.00 0.00 39 1014.2
20260507220024 58 338 1.0 7.0 0.00 0.00 0.00 40 1014.2
20260507214527 58 323 1.0 3.0 0.00 0.00 0.00 39 1013.9
20260507213029 58 263 1.0 4.0 0.00 0.00 0.00 38 1014.0
20260507211516 59 334 2.0 9.0 0.00 0.00 0.00 37 1013.8
20260507210042 59 17 3.0 8.0 0.00 0.00 0.00 42 1013.8
20260507204522 59 336 3.0 5.0 0.00 0.00 0.00 40 1013.7
20260507203023 59 62 0.0 8.0 0.00 0.00 0.00 42 1013.4
20260507201527 59 5 4.0 10.0 0.00 0.00 0.00 40 1013.8
20260507200034 59 5 3.0 5.0 0.00 0.00 0.00 42 1013.7
20260507194520 59 350 4.0 8.0 0.00 0.00 0.00 41 1013.8
20260507193026 59 360 2.0 8.0 0.00 0.00 0.00 41 1013.8
20260507191527 60 327 1.0 9.0 0.00 0.00 0.00 46 1013.9
20260507190031 59 316 2.0 7.0 0.00 0.00 0.00 41 1014.0
20260507184523 59 44 1.0 5.0 0.00 0.00 0.00 48 1013.9
20260507183034 59 62 2.0 9.0 0.00 0.00 0.00 47 1014.0
20260507181524 58 293 1.0 8.0 0.00 0.00 0.00 49 1014.0
20260507180022 58 340 1.0 4.0 0.00 0.00 0.00 47 1014.0
20260507174519 57 17 1.0 9.0 0.00 0.00 0.00 44 1014.1
20260507173026 57 350 2.0 13.0 0.00 0.00 0.00 46 1014.3
20260507171525 57 91 2.0 14.0 0.00 0.00 0.00 41 1014.6
20260507170025 56 252 4.0 11.0 0.00 0.00 0.00 43 1014.7
20260507164524 56 207 5.0 10.0 0.00 0.00 0.00 45 1014.8
20260507163022 56 13 1.0 10.0 0.00 0.00 0.00 46 1014.8
20260507161522 56 31 1.0 7.0 0.00 0.00 0.00 43 1014.8
20260507160029 56 360 3.0 7.0 0.00 0.00 0.00 47 1014.8
20260507154518 56 253 5.0 11.0 0.00 0.00 0.00 45 1014.6
20260507153019 56 269 4.0 8.0 0.00 0.00 0.00 43 1014.5
20260507151526 55 247 4.0 9.0 0.00 0.00 0.00 46 1014.4
20260507150027 54 5 0.0 11.0 0.00 0.00 0.00 48 1014.5
20260507144541 53 138 3.0 7.0 0.00 0.00 0.00 50 1014.6
20260507143022 52 230 3.0 7.0 0.00 0.00 0.00 52 1014.5
20260507141526 52 238 3.0 8.0 0.00 0.00 0.00 52 1014.7
20260507140017 51 263 1.0 5.0 0.00 0.00 0.00 57 1014.7
20260507134515 50 26 2.0 5.0 0.00 0.00 0.00 56 1014.8
20260507133013 49 9 0.0 4.0 0.00 0.00 0.00 60 1015.2
20260507131507 49 286 0.0 5.0 0.00 0.00 0.00 63 1015.2
20260507130032 47 261 0.0 2.0 0.00 0.00 0.00 69 1015.3
20260507124524 45 5 0.0 2.0 0.00 0.00 0.00 73 1015.2
20260507123029 43 15 1.0 3.0 0.00 0.00 0.00 79 1015.3
20260507121518 41 252 0.0 2.0 0.00 0.00 0.00 89 1015.2
20260507120014 40 5 0.0 0.0 0.00 0.00 0.00 92 1015.1
20260507114514 38 360 0.0 0.0 0.00 0.00 0.00 93 1015.1
20260507113007 37 360 0.0 0.0 0.00 0.00 0.00 93 1015.1
20260507111523 37 360 0.0 0.0 0.00 0.00 0.00 92 1014.8
20260507110030 37 360 0.0 0.0 0.00 0.00 0.00 92 1014.7
20260507104520 37 360 0.0 0.0 0.00 0.00 0.00 92 1014.6
20260507103017 37 360 0.0 0.0 0.00 0.00 0.00 92 1014.5
20260507101518 37 360 0.0 0.0 0.00 0.00 0.00 92 1014.6
20260507100013 37 360 0.0 0.0 0.00 0.00 0.00 92 1014.5
20260507094527 37 360 0.0 0.0 0.00 0.00 0.00 91 1014.3
20260507093034 38 360 0.0 0.0 0.00 0.01 0.00 91 1014.2
20260507091524 38 360 0.0 0.0 0.00 0.01 0.00 92 1014.3
20260507090024 38 360 0.0 0.0 0.00 0.01 0.00 91 1014.4
20260507084517 38 360 0.0 0.0 0.00 0.02 0.00 91 1014.3
20260507083020 38 360 0.0 0.0 0.00 0.04 0.00 91 1014.3
20260507081513 38 360 0.0 0.0 0.00 0.06 0.00 90 1014.4